www.pogodaiklimat.ru

Погода и климат >> Архив погоды >> Норвегия >> Квитсёй


ПОГОДА в Квитсёй

  • Прогноз погоды в Квитсёй
  • Монитор погоды в Квитсёй

АРХИВ ПОГОДЫ в Квитсёй

Время (UTC), дата Ветер
(напр.,м/с)
 
Видим.   Явления Облачность Т
(С)
Тd
(С)
f
(%)
Тe
(С)
Тes
(С)
Комфортность P
(гПа)
Po
(гПа)
Тmin
(С)
Tmax
(С)
R
(мм)
R24
(мм)
S
(см)
16 16.08 Ю 8-12
{13}
н/о н/о +15.5 +11.5 77 +14 +14 1006.1 1003.5
17 16.08 Ю 8-13
{13}
н/о н/о +15.7 +12.1 79 +14 +14 1005.3 1002.7
18 16.08 Ю 10-14
{14}
н/о н/о +15.7 +12.6 82 +14 +14 1005.0 1002.3
19 16.08 Ю 9-13
{15}
н/о н/о +15.4 +12.5 83 +13 +13 1004.3 1001.6
20 16.08 Ю 10-15
{15}
н/о н/о +14.6 +12.5 87 +12 +12 1003.9 1001.3
21 16.08 ЮВ 8-13
{13}
н/о н/о +15.2 +12.5 84 +13 +13 1003.2 1000.5
22 16.08 ЮВ 9-13
{14}
н/о н/о +15.4 +12.2 81 +13 +13 1002.1 999.5
23 16.08 ЮВ 10-14
{15}
н/о н/о +15.2 +12.3 83 +13 +13 1001.1 998.4
00 17.08 ЮВ 9-13
{16}
н/о н/о +14.7 +11.9 83 +12 +12 1000.1 997.5
01 17.08 ЮВ 9-12
{15}
н/о н/о +14.3 +11.8 85 +12 +12 998.8 996.2
02 17.08 ЮВ 8-12
{13}
н/о н/о +14.5 +12.2 86 +12 +12 997.6 995.0
03 17.08 ЮВ 6-13
{13}
н/о н/о +14.5 +12.7 89 +13 +13 996.3 993.7
04 17.08 ЮВ 8-12
{13}
н/о н/о +14.9 +13.6 92 +13 +13 995.3 992.7
05 17.08 ЮВ 6-10
{12}
н/о н/о +15.3 +14.3 94 +14 +14 994.4 991.8
06 17.08 Ю 9-13
{15}
н/о н/о +15.5 +14.7 95 +13 +13 993.8 991.2 +14.2 +15.7
07 17.08 Ю 8-12
{14}
н/о н/о +15.8 +14.8 94 +14 +14 993.5 990.9
08 17.08 Ю 10-13
{14}
н/о н/о +16.1 +15.3 95 +14 +14 993.2 990.6
09 17.08 Ю 10-13
{14}
н/о н/о +16.3 +15.2 93 +14 +14 993.3 990.7
10 17.08 Ю 11-14
{14}
н/о н/о +16.8 +15.5 92 +15 +15 993.5 990.9
11 17.08 Ю 11-14
{15}
н/о н/о +17.6 +15.6 88 +16 +16 994.2 991.6
12 17.08 Ю 10-13
{15}
н/о н/о +17.4 +15.4 88 +16 +16 994.8 992.2
13 17.08 Ю 9-12
{14}
н/о н/о +17.1 +14.6 85 +16 +16 995.3 992.7
14 17.08 Ю 7-12
{14}
н/о н/о +17.6 +15.1 85 +17 +17 995.6 993.0
15 17.08 Ю 9-12
{13}
н/о н/о +17.2 +14.1 82 +16 +16 995.8 993.2
16 17.08 Ю 8-12
{13}
н/о н/о +16.8 +14.1 84 +15 +15 996.0 993.4
17 17.08 Ю 8-10
{14}
н/о н/о +15.1 +13.6 91 +13 +13 996.4 993.8
18 17.08 ЮЗ 10-14
{14}
н/о н/о +15.5 +12.4 82 +13 +13 997.1 994.4 +14.4 +18.1
19 17.08 ЮЗ 8-12
{14}
н/о н/о +15.1 +10.7 75 +13 +13 998.0 995.4
20 17.08 ЮЗ 7-10
{11}
н/о н/о +14.8 +10.8 77 +13 +13 998.7 996.0
21 17.08 ЮЗ 7-10
{11}
н/о н/о +15.1 +10.5 74 +13 +13 999.0 996.4
22 17.08 ЮЗ 7-11
{11}
н/о н/о +15.3 +10.3 72 +14 +14 999.1 996.5
23 17.08 Ю 8-11
{11}
н/о н/о +15.3 +11.1 76 +13 +13 999.3 996.7
00 18.08 Ю 8-11
{14}
н/о н/о +15.2 +11.8 80 +13 +13 999.4 996.8
01 18.08 Ю 8-11
{12}
н/о н/о +15.1 +11.9 81 +13 +13 999.5 996.8
02 18.08 Ю 8-11
{11}
н/о н/о +15.5 +12.5 82 +14 +14 999.2 996.6
03 18.08 Ю 8-11
{11}
н/о н/о +15.4 +12.7 84 +13 +13 999.1 996.5
04 18.08 Ю 9-11
{12}
н/о н/о +15.5 +13.0 85 +13 +13 998.8 996.2
05 18.08 Ю 9-12
{13}
н/о н/о +15.5 +13.0 85 +13 +13 998.7 996.1
06 18.08 Ю 7-11
{13}
н/о н/о +15.7 +13.2 85 +14 +14 998.8 996.1 +14.8 +16.0
07 18.08 Ю 8-12
{12}
н/о н/о +16.2 +13.3 83 +15 +15 998.6 996.0
08 18.08 Ю 8-12
{13}
н/о н/о +16.9 +12.9 77 +16 +16 998.7 996.1
09 18.08 ЮВ 8-12
{12}
н/о н/о +17.3 +12.6 74 +16 +16 998.3 995.7
10 18.08 Ю 9-14
{16}
н/о н/о +15.8 +9.9 68 +14 +14 998.1 995.5
11 18.08 ЮВ 6-10
{14}
н/о н/о +16.2 +12.4 78 +15 +15 998.1 995.5
12 18.08 Ю 8-12
{16}
н/о н/о +17.3 +12.0 71 +16 +16 997.9 995.3
13 18.08 Ю 9-13
{14}
н/о н/о +14.3 +10.1 76 +12 +12 998.3 995.7
14 18.08 Ю 8-12
{12}
н/о н/о +16.4 +13.1 81 +15 +15 997.9 995.3
15 18.08 Ю 8-11
{12}
н/о н/о +16.8 +12.8 77 +15 +15 997.7 995.1
16 18.08 Ю 8-11
{11}
н/о н/о +16.5 +13.2 81 +15 +15 997.5 994.9
17 18.08 Ю 8-11
{11}
н/о н/о +16.7 +13.2 80 +15 +15 997.3 994.7
18 18.08 Ю 8-11
{14}
н/о н/о +15.9 +12.1 78 +14 +14 997.1 994.5 +13.4 +17.8
19 18.08 Ю 8-11
{11}
н/о н/о +15.6 +12.5 82 +14 +14 997.1 994.5
20 18.08 Ю 9-11
{12}
н/о н/о +15.3 +12.1 81 +13 +13 997.5 994.9
21 18.08 Ю 10-13
{13}
н/о н/о +15.4 +12.0 80 +13 +13 997.6 995.0
22 18.08 Ю 9-12
{12}
н/о н/о +15.4 +12.2 81 +13 +13 997.1 994.5
23 18.08 Ю 9-12
{16}
н/о н/о +14.4 +11.0 80 +12 +12 997.1 994.5
00 19.08 Ю 13-15
{16}
н/о н/о +15.6 +12.7 83 +13 +13 996.7 994.0
01 19.08 Ю 10-13
{15}
н/о н/о +15.4 +12.7 84 +13 +13 996.6 994.0
02 19.08 Ю 10-14
{15}
н/о н/о +15.3 +12.3 82 +13 +13 996.5 993.9
03 19.08 Ю 11-14
{15}
н/о н/о +15.6 +12.5 82 +13 +13 996.9 994.2
04 19.08 ЮЗ 10-13
{15}
н/о н/о +15.3 +12.4 83 +13 +13 997.2 994.6
05 19.08 ЮЗ 9-14
{14}
н/о н/о +15.2 +12.5 84 +13 +13 997.4 994.8
06 19.08 ЮЗ 10-13
{15}
н/о н/о +15.6 +12.4 81 +13 +13 997.9 995.3 +13.2 +16.0
07 19.08 ЮЗ 10-14
{15}
н/о н/о +15.1 +11.7 80 +13 +13 998.6 996.0
08 19.08 ЮЗ 10-14
{15}
н/о н/о +15.0 +11.8 81 +13 +13 999.4 996.8
09 19.08 ЮЗ 9-15
{15}
н/о н/о +15.8 +12.6 81 +14 +14 1000.2 997.6
10 19.08 ЮЗ 9-14
{16}
н/о н/о +14.8 +12.3 85 +12 +12 1001.1 998.4
11 19.08 ЮЗ 8-12
{14}
н/о н/о +15.3 +12.4 83 +13 +13 1002.0 999.3
12 19.08 ЮЗ 10-12
{16}
н/о н/о +16.4 +12.6 78 +15 +15 1002.8 1000.1
13 19.08 ЮЗ 9-12
{12}
н/о н/о +16.2 +12.8 80 +14 +14 1003.7 1001.1
14 19.08 ЮЗ 9-11
{12}
н/о н/о +16.7 +12.3 75 +15 +15 1004.3 1001.7
15 19.08 ЮЗ 8-10
{11}
н/о н/о +16.8 +12.6 76 +15 +15 1004.7 1002.1
16 19.08 ЮЗ 8-10
{11}
н/о н/о +16.4 +12.0 75 +15 +15 1005.3 1002.6
17 19.08 ЮЗ 7-9
{10}
н/о н/о +16.2 +12.6 79 +15 +15 1005.5 1002.9
18 19.08 ЮЗ 6-9
{12}
н/о н/о +15.5 +12.1 80 +14 +14 1005.8 1003.2 +13.6 +17.1
19 19.08 ЮЗ 6-9
{9}
н/о н/о +15.2 +11.8 80 +14 +14 1006.5 1003.8
20 19.08 ЮЗ 6-8
{9}
н/о н/о +15.1 +11.7 80 +13 +13 1007.0 1004.3
21 19.08 ЮЗ 6-8
{9}
н/о н/о +15.1 +11.3 78 +13 +13 1007.3 1004.6
22 19.08 ЮЗ 7-9
{9}
н/о н/о +15.3 +12.1 81 +14 +14 1007.6 1005.0
23 19.08 ЮЗ 6-8
{9}
н/о н/о +15.2 +12.2 82 +14 +14 1007.7 1005.1
00 20.08 ЮЗ 6-9
{9}
н/о н/о +15.1 +12.1 82 +13 +13 1007.8 1005.1
01 20.08 ЮЗ 7-9
{10}
н/о н/о +15.4 +12.5 83 +14 +14 1007.9 1005.2
02 20.08 ЮЗ 8-10
{12}
н/о н/о +15.4 +12.4 82 +13 +13 1008.1 1005.5
03 20.08 ЮЗ 9-11
{12}
н/о н/о +15.3 +12.1 81 +13 +13 1008.3 1005.6
04 20.08 ЮЗ 7-10
{12}
н/о н/о +15.2 +12.2 82 +13 +13 1008.5 1005.8
05 20.08 ЮЗ 7-10
{12}
н/о н/о +15.3 +12.1 81 +14 +14 1008.8 1006.2
06 20.08 ЮЗ 8-11
{12}
н/о н/о +15.0 +12.1 83 +13 +13 1009.1 1006.4 +14.8 +15.5
07 20.08 ЮЗ 6-10
{11}
н/о н/о +14.5 +12.0 85 +13 +13 1009.9 1007.3
08 20.08 ЮЗ 7-9
{13}
н/о н/о +14.4 +11.9 85 +12 +12 1010.6 1008.0
09 20.08 ЮЗ 6-8
{10}
н/о н/о +14.8 +12.5 86 +13 +13 1011.3 1008.7
10 20.08 З 7-9
{10}
н/о н/о +15.2 +11.8 80 +13 +13 1011.9 1009.3
11 20.08 З 6-8
{10}
н/о н/о +15.2 +11.4 78 +14 +14 1012.6 1009.9
12 20.08 З 7-9
{13}
н/о н/о +15.7 +11.7 77 +14 +14 1013.4 1010.7
13 20.08 З 6-8
{9}
н/о н/о +14.9 +11.1 78 +13 +13 1014.2 1011.5
14 20.08 З 7-10
{10}
н/о н/о +14.1 +10.9 81 +12 +12 1014.8 1012.2
15 20.08 СЗ 9-12
{12}
н/о н/о +13.4 +10.6 83 +10 +10 1015.4 1012.7
16 20.08 З 7-11
{11}
н/о н/о +14.3 +9.9 75 +12 +12 1016.1 1013.4
17 20.08 З 8-9
{10}
н/о н/о +14.6 +8.3 66 +12 +12 1016.6 1013.9
18 20.08 З 7-9
{12}
н/о н/о +14.0 +8.8 71 +12 +12 1017.3 1014.6 +12.9 +16.1
19 20.08 З 5-8
{8}
н/о н/о +13.8 +8.6 71 +12 +12 1017.9 1015.2
20 20.08 З 5-6
{7}
н/о н/о +13.9 +9.6 75 +12 +12 1018.5 1015.8
21 20.08 СЗ 5-7
{7}
н/о н/о +13.8 +10.2 79 +12 +12 1018.9 1016.2
22 20.08 СЗ 4-6
{7}
н/о н/о +13.3 +10.3 82 +12 +12 1019.4 1016.7
23 20.08 СЗ 5-6
{7}
н/о н/о +13.0 +10.0 82 +11 +11 1019.8 1017.1
00 21.08 СЗ 4-6
{8}
н/о н/о +12.6 +9.8 83 +11 +11 1020.1 1017.4
01 21.08 СЗ 4-5
{6}
н/о н/о +12.6 +9.8 83 +11 +11 1020.4 1017.7
02 21.08 З 7-9
{10}
н/о н/о +12.3 +9.5 83 +9 +9 1020.8 1018.1
03 21.08 СЗ 5-8
{11}
н/о н/о +12.6 +9.6 82 +10 +10 1021.0 1018.3
04 21.08 СЗ 6-7
{9}
н/о н/о +12.7 +9.5 81 +10 +10 1021.4 1018.7
05 21.08 СЗ 4-6
{7}
н/о н/о +12.7 +9.5 81 +11 +11 1022.0 1019.2
06 21.08 С 2-4
{11}
н/о н/о +13.0 +9.3 78 +12 +12 1022.2 1019.5 +12.2 +14.1
07 21.08 СВ 1-3
{4}
н/о н/о +13.5 +10.1 80 +14 +14 1022.6 1019.9
08 21.08 С 1-1
{2}
н/о н/о +14.7 +9.5 71 +15 +15 1023.0 1020.3
09 21.08 З 3-4
{4}
н/о н/о +14.7 +8.7 67 +14 +14 1023.2 1020.5
10 21.08 ЮЗ 3-4
{5}
н/о н/о +14.8 +6.9 59 +14 +14 1023.4 1020.7
11 21.08 ЮЗ 3-5
{5}
н/о н/о +15.4 +7.7 60 +15 +15 1023.4 1020.7
12 21.08 Ю 3-5
{5}
н/о н/о +15.6 +8.4 62 +15 +15 1023.4 1020.7
13 21.08 Ю 4-6
{6}
н/о н/о +15.7 +9.2 65 +15 +15 1023.5 1020.8
14 21.08 ЮЗ 5-6
{7}
н/о н/о +15.7 +8.9 64 +15 +15 1023.3 1020.6
15 21.08 Ю 5-7
{7}
н/о н/о +15.9 +9.6 66 +15 +15 1023.2 1020.5
16 21.08 Ю 5-7
{7}
н/о н/о +15.4 +8.6 64 +14 +14 1022.9 1020.2
17 21.08 Ю 6-7
{8}
н/о н/о +15.1 +8.6 65 +14 +14 1022.5 1019.8
18 21.08 Ю 5-7
{8}
н/о н/о +14.9 +9.1 68 +14 +14 1022.0 1019.3 +12.8 +16.3
19 21.08 Ю 6-8
{9}
н/о н/о +15.0 +9.6 70 +13 +13 1021.6 1018.9
20 21.08 ЮВ 6-8
{10}
н/о н/о +14.3 +10.3 77 +12 +12 1021.4 1018.7
21 21.08 ЮВ 6-9
{10}
н/о н/о +14.3 +10.9 80 +12 +12 1021.1 1018.4
22 21.08 ЮВ 7-10
{10}
н/о н/о +14.5 +11.1 80 +12 +12 1020.5 1017.8
23 21.08 ЮВ 8-12
{12}
н/о н/о +13.9 +12.0 88 +11 +11 1019.9 1017.2
00 22.08 ЮВ 7-11
{12}
н/о н/о +14.1 +12.0 87 +12 +12 1019.3 1016.6
01 22.08 ЮВ 6-10
{10}
н/о н/о +14.4 +12.8 90 +12 +12 1018.8 1016.1
02 22.08 ЮВ 7-9
{9}
н/о н/о +14.9 +13.5 91 +13 +13 1018.0 1015.3
03 22.08 Ю 9-13
{17}
н/о н/о +13.5 +12.1 91 +11 +11 1017.2 1014.5
04 22.08 Ю 9-14
{14}
н/о н/о +13.8 +11.9 88 +11 +11 1016.7 1014.0
05 22.08 Ю 8-11
{11}
н/о н/о +14.2 +12.8 91 +12 +12 1016.0 1013.3
06 22.08 Ю 10-15
{17}
н/о н/о +14.6 +13.3 92 +12 +12 1014.7 1012.0 +13.5 +15.0
07 22.08 Ю 13-18
{19}
н/о н/о +14.7 +13.3 91 +12 +12 1013.8 1011.2
08 22.08 Ю 14-19
{20}
н/о н/о +14.6 +13.3 92 +11 +11 1014.0 1011.3
09 22.08 Ю 11-16
{17}
н/о н/о +14.9 +13.6 92 +12 +12 1014.4 1011.7
10 22.08 ЮЗ 11-15
{17}
н/о н/о +14.8 +12.5 86 +12 +12 1014.7 1012.0
11 22.08 ЮЗ 9-12
{15}
н/о н/о +15.7 +13.0 84 +14 +14 1014.8 1012.1
12 22.08 ЮЗ 8-11
{20}
н/о н/о +16.3 +12.7 79 +15 +15 1015.1 1012.4
13 22.08 ЮЗ 8-11
{11}
н/о н/о +16.5 +11.0 70 +15 +15 1015.5 1012.9
14 22.08 ЮЗ 7-10
{11}
н/о н/о +16.6 +11.3 71 +15 +15 1016.0 1013.3
15 22.08 ЮЗ 8-10
{11}
н/о н/о +16.3 +10.6 69 +15 +15 1016.0 1013.4
16 22.08 Ю 8-10
{10}
н/о н/о +16.0 +11.4 74 +14 +14 1015.9 1013.2
17 22.08 Ю 8-10
{10}
н/о н/о +15.4 +11.2 76 +13 +13 1015.5 1012.9
18 22.08 Ю 9-13
{13}
н/о н/о +15.5 +11.9 79 +13 +13 1014.8 1012.1 +14.1 +16.8
19 22.08 Ю 9-12
{12}
н/о н/о +15.3 +12.4 83 +13 +13 1014.7 1012.0
20 22.08 Ю 11-14
{14}
н/о н/о +15.8 +13.1 84 +14 +14 1014.4 1011.8
21 22.08 Ю 10-14
{16}
н/о н/о +15.7 +13.4 86 +14 +14 1014.3 1011.6
22 22.08 Ю 10-14
{14}
н/о н/о +15.8 +13.5 86 +14 +14 1013.9 1011.3
23 22.08 Ю 11-14
{14}
н/о н/о +16.0 +14.2 89 +14 +14 1013.4 1010.7
00 23.08 ЮЗ 10-14
{16}
н/о н/о +16.0 +14.7 92 +14 +14 1012.8 1010.2
01 23.08 ЮЗ 11-14
{15}
н/о н/о +16.2 +14.6 90 +14 +14 1012.9 1010.3
02 23.08 ЮЗ 9-13
{13}
н/о н/о +16.2 +14.4 89 +14 +14 1013.2 1010.5
03 23.08 ЮЗ 7-12
{12}
н/о н/о +16.0 +14.0 88 +14 +14 1013.8 1011.1
04 23.08 ЮЗ 6-8
{9}
н/о н/о +15.8 +14.0 89 +14 +14 1014.3 1011.6
05 23.08 ЮЗ 4-7
{8}
н/о н/о +15.6 +13.8 89 +15 +15 1014.9 1012.3
06 23.08 ЮЗ 5-7
{15}
н/о н/о +15.8 +13.6 87 +15 +15 1015.6 1012.9 +14.5 +16.3
07 23.08 ЮЗ 6-8
{8}
н/о н/о +16.0 +12.6 80 +15 +15 1016.2 1013.5
08 23.08 ЮЗ 5-7
{8}
н/о н/о +16.6 +12.8 78 +16 +16 1016.8 1014.1
09 23.08 ЮЗ 6-8
{8}
н/о н/о +16.8 +13.5 81 +16 +16 1017.5 1014.8
10 23.08 ЮЗ 6-7
{8}
н/о н/о +16.6 +12.8 78 +16 +16 1018.3 1015.6
11 23.08 Ю 6-7
{7}
н/о н/о +16.8 +13.3 80 +16 +16 1018.8 1016.1
12 23.08 ЮЗ 5-7
{8}
н/о н/о +17.0 +14.3 84 +16 +16 1019.2 1016.5
13 23.08 Ю 4-6
{7}
н/о н/о +16.5 +14.3 87 +16 +16 1019.6 1016.9
14 23.08 Ю 5-6
{7}
н/о н/о +16.2 +14.7 91 +15 +15 1020.1 1017.4
15 23.08 Ю 5-6
{8}
н/о н/о +16.1 +14.8 92 +15 +15 1020.0 1017.3
16 23.08 ЮЗ 5-6
{7}
н/о н/о +16.4 +15.1 92 +15 +15 1020.1 1017.4
17 23.08 ЮЗ 4-6
{6}
н/о н/о +16.3 +15.0 92 +16 +16 1020.3 1017.6

 

Местоположение метеостанции Квитсёй (Норвегия): широта 59.07 долгота 5.42 высота над уровнем моря 21 м.

В архиве по умолчанию представлена погода в Квитсёй за последнюю неделю. Архивные данные за месяц целиком и за предыдущие месяцы, начиная с января 2011 года, Вы можете получить, выбрав интересующий диапазон дат из раскрывающегося списка и нажав кнопку "Ввод!".


*Определитесь, кто Вы:
робот инопланетянин человек

Внимание! Время в таблицах - всемирное. Для получения местного времени необходимо прибавить поправку, которая равна 1 ч.

Смотрите также архив погоды в соседних городах и на ближайших метеорологических станциях:

Погода в Ставангере (Норвегия) (22 км)
Погода в Ставангер аэропорту (Норвегия) (25 км)
Погода в Аэропорту Haugesund (Норвегия) (34 км)
Погода в Фистере (Норвегия) (37 км)
Погода в Сархейме (Норвегия) (37 км)
Погода на Лярватне (Норвегия) (40 км)
Погода на Маяке Utsira (Норвегия) (41 км)
Погода в Роваере (Норвегия) (45 км)
Погода на Маяке Obrestad (Норвегия) (47 км)
Погода в Недре Ватс (Норвегия) (50 км)

Пояснения к столбцам:

Ветер - указаны скорость ветра в м/с - средняя за 10 мин, порывы в срок и между сроками (в фигурных скобках) и направление, откуда дует ветер: С - северный, СВ - северо-восточный, В - восточный, ЮВ - юго-восточный, Ю - южный, ЮЗ - юго-западный, З - западный, СЗ - северо-западный.
Видимость - горизонтальная дальность видимости в метрах или километрах. При видимости от 1 до 10 км при отсутствии осадков обычно наблюдается дымка, при ухудшении видимости до 1 км и менее - туман. В сухую погоду видимость может ухудшаться дымом, пылью или мглою.
Явления - указаны атмосферные явления, наблюдавшиеся в срок или в последний час перед сроком; фигурными скобками обозначены явления, наблюдавшиеся между сроками (за 1-3 часа до срока); квадратными скобками обозначены град или гололедные отложения с указанием их диаметра в мм.
Облачность - указаны через наклонную черту общая и нижняя облачность в баллах и высота нижней границы облаков в метрах; квадратными скобками обозначены формы облаков: Ci - перистые, Cs - перисто-слоистые, Cc - перисто-кучевые, Ac - высококучевые, As - высокослоистые, Sc - слоисто-кучевые, Ns - слоисто-дождевые, Cu - кучевые, Cb - кучево-дождевые. Подробнее классификацию облаков см. в Атласе облаков (PDF).
T - Температура воздуха - температура, измеренная на высоте 2 м над землей.
Td - Температура точки росы - температура, при понижении до которой содержащийся в воздухе водяной пар достигнет насыщения.
f - Относительная влажность воздуха - влажноcть воздуха, измеренная на высоте 2 м над землей.
Te - Эффективная температура - температура, которую ощущает одетый по сезону человек в тени. Характеристика душности погоды. При расчете учитывается влияние влажности воздуха и скорости ветра на теплоощущения человека.
Tes - Эффективная температура на солнце - температура, которую ощущает человек, с поправкой на солнечный нагрев. Характеристика знойности погоды. Зависит от высоты солнца над горизонтом, облачности и скорости ветра. Ночью, в пасмурную погоду, а также при ветре 12 м/с и более поправка равна нулю.
P - Атмосферное давление - приведенное к уровню моря атмосферное давление.
Po - Атмосферное давление - измеренное на уровне метеостанции атмосферное давление.
Tmin - Минимальная температура - минимум температуры воздуха на высоте 2 м над землей.
Tmax - Максимальная температура - максимум температуры воздуха на высоте 2 м над землей.
R - Количество осадков - Количество выпавших осадков за период времени, мм. При наведении курсора мыши на число - период времени, за который выпало указанное количество осадков.
R24 - Количество осадков - Количество выпавших осадков за 24 часа, мм.
S - Снежный покров - Высота снежного покрова, см. При наведении курсора мыши на число - состояние снежного покрова и степень покрытия местности в баллах.